Current weather by "City, St" or "zip code"  
 
Advertise Here

Current Conditions: Orlando International Airport, FL

A Few Clouds


67.0 F

Last Updated on May 16 2021, 1:53 am EDT
Humidity: 68%
Wind Speed: NE 8.1 mph
Barometer 30.16 in
Dewpoint: 55.9 F
Visibility: 10.00 mi
Precip: --
Heat Index: NA
Wind Chill: NA
Current conditions at:

Orlando International Airport, FL (KMCO)

Lat: 28.41826 Lon: 81.32413

Local Radar Image active severe weather and emergency alerts image image weather storm and storm spotter reports image weather observation monitoring service image
Local
Radar
Active
Alerts
Storm Reports Obs
Monitoring

Sign-up For Email & Text Message Weather Alert Notification Services


Advertise Here

Observation History for Orlando International Airport, FL


Time Wind
(mph)
Vis
(mi)
Weather Precip (in) Temperature (F) Relative
Humidity
Wind
Chill
(F)
Heat
Index
(F)
Pressure
Air Dwpt altimeter
(in)
sea level
(mb)
Rmks
1:53 am EDT NE 8.1 10.00 A Few Clouds -- 67.0 55.9 68% NA NA 30.16 1021.0
12:53 am EDT NE 8.1 10.00 A Few Clouds -- 68.0 57.0 68% NA NA 30.16 1021.2
11:53 pm EDT NE 9.2 10.00 A Few Clouds -- 69.0 55.9 63% NA NA 30.17 1021.6
10:53 pm EDT NE 10.4 10.00 Fair -- 70.0 55.9 61% NA NA 30.16 1021.2
9:53 pm EDT NE 11.5 10.00 Fair -- 71.0 55.9 59% NA NA 30.15 1020.7
8:53 pm EDT NE 12.7 10.00 A Few Clouds -- 73.0 57.0 57% NA NA 30.13 1020.2
7:53 pm EDT NE 16.1 10.00 Partly Cloudy -- 75.0 55.0 50% NA NA 30.13 1020.0
6:53 pm EDT NE 16.1 10.00 A Few Clouds -- 76.0 53.1 45% NA NA 30.12 1019.7
12:53 pm EDT 4.6 G 17.3 10.00 Partly Cloudy -- 81.0 55.0 41% NA 81 30.16 1021.2
11:53 am EDT NE 13.8 G 21.9 10.00 Partly Cloudy -- 82.0 55.9 41% NA 82 30.17 1021.3
10:53 am EDT NE 10.4 10.00 A Few Clouds -- 80.0 57.0 45% NA 80 30.18 1021.7
9:53 am EDT NE 12.7 10.00 Partly Cloudy -- 77.0 57.0 50% NA NA 30.17 1021.4
8:53 am EDT N 13.8 G 18.4 10.00 A Few Clouds -- 74.0 57.0 56% NA NA 30.16 1021.0
7:53 am EDT N 10.4 10.00 A Few Clouds -- 69.0 55.9 63% NA NA 30.15 1020.7
6:53 am EDT N 8.1 10.00 A Few Clouds -- 65.0 55.0 70% NA NA 30.14 1020.4
5:53 am EDT N 10.4 10.00 A Few Clouds -- 64.0 57.0 78% NA NA 30.12 1019.8
1:53 am EDT N 8.1 10.00 A Few Clouds -- 66.0 60.1 81% NA NA 30.13 1020.2

Regional Weather Observation


Leesburg International Airport, FL (KLEE)

Fair
63.0 F

Orlando / Sanford Airport, FL (KSFB)

Fair
66.0 F

Orlando International Airport, FL (KMCO)

A Few Clouds
67.0 F

Kissimmee Gateway Airport, FL (KISM)

Fair
69.0 F

Winter Havens Gilbert Airport, FL (KGIF)

Fair
68.0 F

DeLand Municipal Airport, FL (KDED)

Fair
59.0 F
Advertise Here

Advertise Here